sat.trackr.live / text

‹ back to catalog

STARLINK-35282

NORAD 65658 · 2025-211G

PAYLOAD ACTIVE UNKNOWN

§ Identity

Operator
Country
US
Launch date
2025-09-19
Launch site
AFWTR
Launch vehicle
Mass (kg)
RCS (m²)

Purposes: comms

External: N2YO · Heavens-Above · Gunter

§ Orbital elements

Epoch: 2026-05-25T03:11:09.625056Z

Period
95.64 min
Inclination
97.4490°
Eccentricity
0.0000939
Mean motion
15.05654257 rev/d
Perigee alt
548.8 km
Apogee alt
550.1 km
Semi-major
6,927.6 km
B*
3.4542e-4
RAAN
189.0388°
Arg perigee
146.5772°
Mean anomaly
213.5514°
Rev number
3,854

§ Raw data

STARLINK-352821 65658U 25211G   26145.13275029  .00004929  00000+0  34542-3 0  99922 65658  97.4490 189.0388 0000939 146.5772 213.5514 15.05654257 38546

JSON: /api/v1/satellites/65658 · /tle

For live sub-satellite position, see the globe view (requires WebGL).

§ Visibility from observer

Set your observer location to see the next 7 days of passes ≥ 10°. The values pass through the URL so the page stays shareable.

No JS? Fill the form by hand. The geolocation button needs JavaScript.